Overview Statistics Trail Chart Weather Telemetry Raw packets
 

This is the latest recevied weather packets stored in our database for station/object SA7AHC. If no packets are shown the sender has not sent any weather packets the latest 10 day(s).

<< 16 17 18 19 20 21 22 >>
Time Temp. Humidity Pressure Rain* Wind** Luminosity Snow
1788376953 13.33° C 96% 1013.6 hPa 1.52 mm - 0 W/m² -
1788376353 13.33° C 96% 1013.6 hPa 1.52 mm - 0 W/m² -
1788375757 13.33° C 96% 1013.7 hPa 1.52 mm - 0 W/m² -
1788375151 13.33° C 96% 1013.6 hPa 1.52 mm - 0 W/m² -
1788374552 13.33° C 96% 1013.7 hPa 1.52 mm - 0 W/m² -
1788373952 13.89° C 95% 1013.7 hPa 0.25 mm - 0 W/m² -
1788373352 13.89° C 95% 1013.6 hPa 0 mm - 0 W/m² -
1788372749 13.89° C 95% 1013.6 hPa 0 mm - 0 W/m² -
1788372149 13.89° C 95% 1013.5 hPa 0 mm - 0 W/m² -
1788371553 13.89° C 95% 1013.5 hPa 0 mm - 14 W/m² -
1788370949 13.89° C 95% 1013.5 hPa 0 mm - 28 W/m² -
1788370349 13.89° C 94% 1013.4 hPa 0 mm - 14 W/m² -
1788369748 14.44° C 94% 1013.5 hPa 0 mm - 14 W/m² -
1788369149 14.44° C 94% 1013.5 hPa 0 mm - 16 W/m² -
1788368551 14.44° C 94% 1013.7 hPa 0 mm - 25 W/m² -
1788367949 14.44° C 94% 1013.6 hPa 0 mm - 44 W/m² -
1788367349 14.44° C 94% 1013.6 hPa 0 mm - 51 W/m² -
1788366749 14.44° C 93% 1013.9 hPa 0 mm - 40 W/m² -
1788366148 14.44° C 93% 1013.7 hPa 0 mm - 46 W/m² -
1788365549 15° C 93% 1013.7 hPa 0 mm - 54 W/m² -
1788364949 15° C 94% 1013.7 hPa 0 mm - 42 W/m² -
1788363748 15.56° C 94% 1013.9 hPa 0 mm - 74 W/m² -
1788363150 15.56° C 95% 1013.9 hPa 0 mm - 128 W/m² -
1788362549 15.56° C 95% 1013.9 hPa 0.25 mm - 62 W/m² -
1788361949 15° C 95% 1013.9 hPa 0.25 mm - 163 W/m² -

* Rain latest hour (hover to see other rain measurements)
** Current wind speed in m/s (hover to see current wind gust speed)